World Cup FINA 2002 (étape 7)

Internationale

PARIS

Du Vendredi 18 Janvier 2002 au Samedi 19 Janvier 2002

Bassin de 25m

50 Papillon Dames

Séries

Nom Année Club Pays Temps Points Niv.
1 BOROCHOVSKI Vered 1984 ISRAËL ISR 0:27:15 1049
2 MORAVCOVA Martina 1976 SLOVAQUIE SVK 0:27:17 1047
3 BUI DUYET Diane 1979 FRANCE FRA 0:27:44 1018
4 DUFOUR Fabienne 1981 BELGIQUE BEL 0:27:61 1001
5 CARROLL Jennifer 1981 CANADA CAN 0:27:64 999
6 EGDAL Karen 1978 DANEMARK DEN 0:27:68 995
7 ROLLAND Nadine 1975 CANADA CAN 0:27:85 979
8 COPE Haley 1979 ETATS-UNIS USA 0:27:92 972
9 GALVEZ Felicity 1985 AUSTRALIE AUS 0:28:15 952
10 KIBALO Ekaterina 1982 RUSSIE RUS 0:28:20 947
11 DIEZI Dominique 1977 SUISSE SUI 0:28:26 942
12 METELLA Malia 1982 FRANCE FRA 0:28:29 940
13 FRIEDRICH Catherine 1985 ALLEMAGNE GER 0:28:30 939
14 HALLANDER Lena 1982 SUÈDE SWE 0:28:30 939
15 GOSTOMELSKY Anna 1981 ISRAËL ISR 0:28:31 938
16 FAGUNDEZ Gabriella 1985 SUÈDE SWE 0:28:32 937
17 LINDH Jennie 1984 SUÈDE SWE 0:28:42 929
18 MONGEL Aurore 1982 FRANCE FRA 0:28:43 928
19 SAN JUAN Angela 1983 ESPAGNE ESP 0:28:44 927
20 BOSSUYT Tine 1980 BELGIQUE BEL 0:28:53 920
21 SCHOEBER Sonja 1985 ALLEMAGNE GER 0:28:58 916
22 SHEALY Courtney 1977 ETATS-UNIS USA 0:28:65 910
23 NEUBRECH Christine 1985 ALLEMAGNE GER 0:28:73 904
24 SZE Hang Yu 1988 HONGKONG HKG 0:28:75 903
25 CHAN Wing Suet 1986 HONGKONG HKG 0:28:87 893
26 LACROIX Audrey 1983 CANADA CAN 0:28:91 890
27 VERBAUWEN Pascale 1963 BELGIQUE BEL 0:29:00 884
28 LEVAVI Inbal 1984 ISRAËL ISR 0:29:01 883
29 SUN So Eun 1988 CORÉE DU SUD KOR 0:29:12 875
30 KNUTSSON Linda 1985 SUÈDE SWE 0:29:31 861
31 BRETT Rosalind 1979 GRANDE-BRETAGNE GBR 0:29:32 861
32 BODEN Mia 1983 SUÈDE SWE 0:29:34 859
33 LECLERCQ Mélanie 1984 FRANCE FRA 0:29:66 838
34 MERAT BASSES Ophélie 1984 FRANCE FRA 0:29:87 824
35 BUELENS Griet 1984 BELGIQUE BEL 0:30:02 814
36 SHLEMOVA Irina 1984 OUZBÉKISTAN UZB 0:30:33 795
37 VERTOMMEN Tine 1985 BELGIQUE BEL 0:31:38 737
38 LARAS Maya 1986 ALGÉRIE ALG 0:31:41 735

Finale A

Nom Année Club Pays Temps Points Niv.
1 MORAVCOVA Martina 1976 SLOVAQUIE SVK 0:26:55 1120
2 BOROCHOVSKI Vered 1984 ISRAËL ISR 0:26:93 1074
3 BUI DUYET Diane 1979 FRANCE FRA 0:27:13 1051
4 COPE Haley 1979 ETATS-UNIS USA 0:27:29 1034
5 CARROLL Jennifer 1981 CANADA CAN 0:27:40 1022
6 DUFOUR Fabienne 1981 BELGIQUE BEL 0:27:54 1008
7 EGDAL Karen 1978 DANEMARK DEN 0:27:62 1000
8 ROLLAND Nadine 1975 CANADA CAN 0:28:47 925